Regional Weather Roundup
Issued by NWS

Home | Current Version | Previous Version | Text Only | Print | Product List | Glossary Off
Versions: 1 2 3 4 5 6 7 8 9 10 11 12 13 14 15 16 17 18 19 20 21 22 23 24 25 26 27 28 29 30 31 32 33 34 35 36 37 38 39 40 41 42 43 44 45 46 47 48 49 50

000
ASUS43 KIND 230500
RWRIN

WEATHER ROUNDUP FOR INDIANA
NATIONAL WEATHER SERVICE INDIANAPOLIS IN
100 AM EDT FRI JUN 23 2017

NOTE: "FAIR" INDICATES FEW OR NO CLOUDS BELOW 12,000 FEET WITH NO
SIGNIFICANT WEATHER AND/OR OBSTRUCTIONS TO VISIBILITY.

* - STATION DOES NOT REPORT WEATHER SUCH AS PRECIPITATION OR FOG.

+ - STATION NOT QUALITY CONTROLLED BY THE NATIONAL WEATHER SERVICE.
    USE DATA WITH CAUTION...ESPECIALLY DEWPOINT AND RELATIVE
    HUMIDITY OBSERVATIONS.

INZ001>003-010>013-019-020-230600-
NORTHWEST INDIANA

CITY           SKY/WX    TMP DP  RH WIND       PRES   REMARKS
GARY /AIRPORT/ RAIN      76  70  80 S7        29.74F
KNOX *+        CLOUDY    73  61  64 S9        29.77S
MICHIGAN CITY+ HVY RAIN  72  70  94 S10       29.75F
MONTICELLO +   CLOUDY    73  69  90 S9        29.77S
RENSSELAER +   CLOUDY    73  68  83 S9        29.76F

$$

LMZ046-743>745-230600-
SOUTHERN LAKE MICHIGAN

STATION/POSITION TIME  TEMP    WIND        PRES    WAVE
                       AIR SEA DIR/SP/G            HT
                 (UTC) (F)     (DEG/KT/KT) (MB)    (FT)
BURNS HARBOR     0440   74     190/ 16/ 21 1007.8F
MICHIGAN CITY    0430   74     180/ 11/ 14   N/A
5NW MICH CITY    0450   72 68  200/ 12/ 16   N/A     1

$$

INZ004-005-014>016-021>024-230600-
NORTH CENTRAL INDIANA

CITY           SKY/WX    TMP DP  RH WIND       PRES   REMARKS
GOSHEN         CLOUDY    75  66  73 SW14      29.78F
SOUTH BEND     CLOUDY    74  68  81 S12       29.76F

$$

INZ006>009-017-018-025>027-230600-
NORTHEAST INDIANA

CITY           SKY/WX    TMP DP  RH WIND       PRES   REMARKS
FORT WAYNE     CLOUDY    74  66  76 SW13      29.80
KENDALLVILLE + CLOUDY    74  67  81 S9        29.80F

$$

INZ028-029-035-036-043>045-051>053-230600-
WEST CENTRAL INDIANA

CITY           SKY/WX    TMP DP  RH WIND       PRES   REMARKS
CRAWFORDSVL +  CLOUDY    70  70 100 S12       29.79F
GREENCASTLE +  CLOUDY    72  70  94 S5        29.81F
LAFAYETTE      CLOUDY    72  70  93 VRB5      29.77F
TERRE HAUTE    CLOUDY    74  70  87 S7        29.79F

$$

INZ030>032-037>040-046>048-054>057-064-065-230600-
CENTRAL INDIANA

CITY           SKY/WX    TMP DP  RH WIND       PRES   REMARKS
GREENWOOD *+   CLOUDY    72  69  89 S10       29.83F
INDIANAPOLIS   CLOUDY    72  69  90 S9        29.80
-EAGLE CREEK   CLOUDY    73  69  87 S8        29.80F
KOKOMO +       CLOUDY    72  69  90 S15       29.81
MT COMFORT *+  CLOUDY    72  68  88 S9        29.83F
SHELBYVILLE    CLOUDY    73  68  84 S13       29.82F

$$

INZ033-034-041-042-049-050-058-059-230600-
EAST CENTRAL INDIANA

CITY           SKY/WX    TMP DP  RH WIND       PRES   REMARKS
MUNCIE         CLOUDY    74  68  81 S14G20    29.82F
RICHMOND +     LGT RAIN  68  68 100 S12       29.86F

$$

INZ060-061-067>069-081>083-085>088-230600-
SOUTHWEST INDIANA

CITY           SKY/WX    TMP DP  RH WIND       PRES   REMARKS
EVANSVILLE     CLOUDY    76  73  91 S9        29.80F
HUNTINGBURG *+ CLOUDY    75  73  93 S12       29.82F

$$

INZ062-063-066-070>080-084-089>092-230600-
SOUTH CENTRAL AND SOUTHEAST INDIANA

CITY           SKY/WX    TMP DP  RH WIND       PRES   REMARKS
BLOOMINGTON    CLOUDY    72  69  90 S7        29.82
MADISON *+     CLOUDY    72  70  94 S8        29.88F
SEYMOUR +      CLOUDY    73  72  94 S6        29.83F

$$





USA.gov is the U.S. government's official web portal to all federal, state and local government web resources and services.